Погода в Крупке

Чехия     50°40′52″N   13°52′06″E
темп.,
°C
ветер,
м/с
пор.,
м/с
влажн.,
%
обл.,
%
осадки,
мм/ч
давл.,
гПа
погр.,
м
28 июня, вт
вт2823:00+18зсз3994100 8.7 1017324
02:00+17зюз1298100 14.6 1020145
05:00+16ссз3798100 1.8 1020385
08:00+15сз3693100 1.8 1021481
11:00+17ссз238470 0.2 1022686
14:00+20с226651 0.3 10211109
17:00+22ссв225556 0.0 10201222
20:00+19ссв237279 0.0 101981
29 июня, ср
ср2923:00+16с117490 0.0 101919
02:00+17ссв2868100 0.0 1018243
05:00+17св267696 0.0 1016206
08:00+17всв2589100 0.1 1016290
11:00+18всв249487 5.6 1016366
14:00+19всв3487100 5.9 1015468
17:00+20ссв229082 1.4 1013447
20:00+19вюв2796100 4.3 1013518
30 июня, чт
чт3023:00+16юв2397100 0.1 101383
02:00+16ю3698100 0.1 1013178
05:00+15ююв1299100 0.0 101357
08:00+18ю239459 0.0 1013235
11:00+23ююв2267100 0.0 1012791
14:00+26ю3355100 0.0 10121295
17:00+26ю335658 0.1 10121433
20:00+23ююв117619 0.3 101116
1 июля, пт
пт123:00+19ююз119029 1.1 101312
02:00+19зюз1188100 3.0 101211
05:00+17зсз229364 2.1 101223
08:00+14сз51197100 3.8 1015438
11:00+14сз51196100 0.3 1016509
14:00+15сз4993100 1.3 1017735
17:00+12зсз61294100 0.3 1019530
20:00+11зсз51196100 0.4 1021608
2 июля, сб
сб223:00+10зсз379585 0.0 1024476
02:00+9зюз2294100 0.0 102435
05:00+10зюз24910 0.0 102483
08:00+15з25713 0.0 1024386
11:00+19сз35463 0.0 10251880
14:00+20сз44412 0.0 10242114
17:00+21ссз33416 0.0 10241925
20:00+18св11620 0.0 102412